Regional Weather Roundup
Issued by NWS

Home | Current Version | Previous Version | Graphics & Text | Print | Product List | Glossary On
Versions: 1 2 3 4 5 6 7 8 9 10 11 12 13 14 15 16 17 18 19 20 21 22 23 24 25 26 27 28 29 30 31 32 33 34 35 36 37 38 39 40 41 42 43 44 45 46 47 48 49 50
000
ASUS45 KCYS 211010
RWRWY

WYOMING REGIONAL WEATHER ROUNDUP
NATIONAL WEATHER SERVICE CHEYENNE WY
300 AM MST FRI NOV 21 2014

NOTE:  "FAIR" INDICATES FEW OR NO CLOUDS BELOW 12,000 FEET
WITH NO SIGNIFICANT WEATHER AND/OR OBSTRUCTIONS TO VISIBILITY.

WYZ001-211100-
YELLOWSTONE NATIONAL PARK

CITY           SKY/WX    TMP DP  RH WIND       PRES   REMARKS
LK YELLOWSTONE   N/A     27  23  85 VRB7      30.00S WCI  19
W YELLOWSTONE  NOT AVBL

$$
WYZ002>013-054>058-071-098>099-211100-
NORTHERN WYOMING

CITY           SKY/WX    TMP DP  RH WIND       PRES   REMARKS
JACKSON        CLOUDY    14  12  92 CALM      30.03S
CODY           CLEAR     43  23  45 W13G18    29.88S
GREYBULL       MOCLDY     7   4  87 CALM      29.92S
WORLAND        PTCLDY     7   4  87 CALM      29.90F
SHERIDAN       MOCLDY    30  23  75 CALM      29.83F
BUFFALO        MOCLDY    38  17  42 NW7       29.85R WCI  33
GILLETTE       MOCLDY    27  20  75 NE3       29.84S
HULETT         FAIR      32  23  69 SW6       29.86R WCI  26
NEWCASTLE      FAIR      23  19  86 CALM      29.89S

$$
WYZ014>020-022>026-101>103-211100-
CENTRAL WYOMING

CITY           SKY/WX    TMP DP  RH WIND       PRES   REMARKS
BIG PINEY      MOCLDY    11   7  84 NE6       30.02S WCI   1
PINEDALE       MOSUNNY   12  10  92 NW8       30.03S WCI   1
DUBOIS         FAIR      28  19  69 NW12      29.95S WCI  18
LANDER         NOT AVBL
RIVERTON       PTCLDY    20  15  81 SW12      29.91S WCI   8
CASPER         MOCLDY    34  22  61 W15       29.91S WCI  24
DOUGLAS        CLOUDY    32  23  69 W5        29.90F WCI  27

$$
WYZ021-027>030-104>119-211100-
SOUTHERN WYOMING

CITY           SKY/WX    TMP DP  RH WIND       PRES   REMARKS
EVANSTON       CLEAR     25  13  60 S7        30.02S WCI  17
FORT BRIDGER   FAIR      27  15  59 W9        30.04S WCI  18
ROCK SPRINGS   PTCLDY    24  15  68 SW10      30.01S WCI  14
DIXON          CLOUDY    26  20  78 CALM      30.06S
RAWLINS        MOCLDY    31  16  54 W9        29.99S WCI  23
SARATOGA       PTSUNNY   30  19  64 S9        30.00S WCI  22
LARAMIE        MOCLDY    30  18  60 SW10      29.97F WCI  21
CHEYENNE       MOCLDY    38  19  46 W10       29.95F WCI  31
TORRINGTON     PTCLDY    23  17  78 NE6       29.90F WCI  16
PINE BLUFFS    FAIR      36  21  55 CALM      29.93F

$$


USA.gov is the U.S. government's official web portal to all federal, state and local government web resources and services.